[[{"header":{"parameterUnit":"m.s-1","parameterCategory":1,"la1":30.2991,"la2":30.254,"lo1":-89.0895,"lo2":-89.0444,"dy":0.0017,"dx":0.0017,"nx":28,"ny":28,"refTime":"2024-12-08T03:00:00:Z","depth":0,"parameterNumber":2,"parameterNumberName":"U-component_of_WINDS"},"data":[0,0,0,0,0,0,0,0,0,0,0,0,0,0,0,0,0,0,0,0,0,0,0,0,0,0,0,0,0,0,0,0,0,0,0,0,0,0,0,0,0,0,0,0,0,0,0,0,0,0,0,0,0,0,0,0,0,0,-3.5677,-3.5677,0,-3.5684,-3.5685,-3.5685,-3.5575,-3.5572,-3.5569,-3.5566,-3.5573,-3.5576,-3.5579,0,0,0,0,0,0,0,0,0,0,0,0,0,-3.5568,-3.557,-3.5677,-3.5677,-3.5677,-3.5684,-3.5685,-3.5685,-3.5576,-3.5572,-3.5568,-3.5565,-3.5573,-3.5576,-3.558,0,0,0,0,0,0,0,0,0,0,0,0,0,-3.5599,-3.5571,-3.5677,-3.5624,-3.5619,-3.5684,-3.5685,-3.5685,-3.5576,-3.5572,-3.5567,-3.5563,-3.5571,-3.5576,-3.558,-3.5697,0,0,-3.5594,-3.5596,0,0,0,0,0,0,0,0,-3.5598,-3.5603,-3.5632,-3.5628,-3.5622,-3.5624,-3.5648,-3.5689,-3.5577,-3.5593,-3.5566,-3.5561,-3.5594,-3.5596,-3.5607,-3.5697,-3.5697,-3.5594,-3.5597,-3.5599,-3.56,0,0,0,0,0,0,0,-3.5596,-3.5603,-3.568,-3.5632,-3.5627,-3.5599,-3.5599,-3.5656,-3.5618,-3.5591,-3.5583,-3.5585,-3.5591,-3.5603,-3.5607,-3.5698,-3.5594,-3.5598,-3.5601,-3.5602,-3.5882,-3.5886,0,0,0,0,0,0,-3.5601,-3.5601,-3.568,-3.568,-3.5599,-3.5605,-3.5604,-3.5628,-3.5617,-3.5611,-3.5589,-3.558,-3.5598,-3.5602,-3.5607,-3.5741,-3.5599,-3.5603,-3.5605,-3.5877,-3.5883,-3.5888,0,0,0,0,0,0,-3.5599,-3.5609,-3.5679,-3.5639,-3.5646,-3.5611,-3.5639,-3.5631,-3.5643,-3.5616,-3.5609,-3.5609,-3.5595,-3.56,-3.5675,-3.574,-3.5605,-3.5609,-3.5872,-3.5879,-3.5886,-3.6012,0,0,0,0,0,0,-3.5596,-3.5609,-3.5653,-3.5641,-3.5648,-3.5748,-3.5643,-3.5634,-3.5651,-3.564,-3.5633,-3.5627,-3.5592,-3.5669,-3.5679,-3.5744,-3.5612,-3.5865,-3.5875,-3.5883,-3.6002,-3.6023,-3.6041,0,0,0,0,0,-3.5593,-3.5689,-3.5656,-3.5666,-3.5703,-3.5752,-3.5756,-3.5713,-3.5657,-3.5701,-3.5683,-3.5628,-3.5732,-3.5677,-3.5688,-3.5755,-3.5861,-3.5872,-3.5883,-3.5993,-3.6019,-3.604,0,0,0,0,0,0,-3.571,-3.5686,-3.5649,-3.5744,-3.5751,-3.5734,-3.5787,-3.5742,-3.5765,-3.5753,-3.5699,-3.5698,-3.5781,-3.5775,-3.5716,-3.5867,-3.5786,-3.58,-3.5867,-3.5891,-3.591,-3.5908,-3.5616,0,0,0,0,0,-3.5747,-3.5789,-3.5766,-3.5852,-3.5857,-3.5822,-3.5842,-3.5808,-3.5813,-3.5815,-3.5803,-3.581,-3.5844,-3.5867,-3.5897,-3.6001,-3.5997,-3.6052,-3.6072,-3.6088,-3.6099,-3.6153,-3.6176,-3.5923,-3.5923,-3.5923,0,0,-3.5823,-3.5816,-3.5846,-3.5875,-3.5876,-3.5921,-3.5825,-3.5877,-3.5909,-3.5823,-3.5892,-3.5884,-3.5888,-3.5977,-3.6016,-3.5975,-3.6169,-3.6101,-3.6114,-3.6117,-3.6166,-3.619,-3.6212,-3.593,-3.5929,-3.5928,0,0,-3.5985,-3.5984,-3.6055,-3.6058,-3.6061,-3.6037,-3.6054,-3.6044,-3.6035,-3.6104,-3.604,-3.6077,-3.6137,-3.6142,-3.6153,-3.6316,-3.6265,-3.6328,-3.6428,-3.648,-3.65,-3.6518,-3.6575,-3.6596,-3.634,-3.634,-3.634,0,-3.6079,-3.6144,-3.6097,-3.6152,-3.6167,-3.6091,-3.6162,-3.6168,-3.6181,-3.6192,-3.6146,-3.6219,-3.6217,-3.6306,-3.6346,-3.6357,-3.6374,-3.6327,-3.6501,-3.6518,-3.6534,-3.6587,-3.6609,-3.6348,-3.6347,-3.6346,-3.6345,0,-3.6259,-3.6305,-3.6362,-3.6376,-3.6397,-3.646,-3.6422,-3.6449,-3.6414,-3.6395,-3.6465,-3.6459,-3.6486,-3.6505,-3.6471,-3.6589,-3.6563,-3.6511,-3.6429,-3.6566,-3.6615,-3.6636,-3.6358,-3.6356,-3.6353,-3.6352,0,0,-3.6494,-3.6481,-3.6502,-3.6507,-3.6505,-3.6539,-3.6599,-3.6625,-3.6648,-3.666,-3.6708,-3.6761,-3.6711,-3.6723,-3.6689,-3.6736,-3.6864,-3.6677,-3.6676,-3.6711,-3.6992,-3.7031,-3.7055,-3.6831,-3.6835,-3.6838,-3.6991,0,-3.6649,-3.675,-3.6709,-3.6813,-3.6853,-3.6783,-3.6834,-3.6839,-3.6823,-3.6855,-3.6837,-3.6874,-3.6808,-3.6814,-3.6857,-3.684,-3.692,-3.6828,-3.6874,-3.6876,-3.6873,-3.7081,-3.7122,-3.7267,-3.701,-3.7014,-3.7016,0,-3.6844,-3.6863,-3.6971,-3.6961,-3.6977,-3.7024,-3.7044,-3.7076,-3.7079,-3.7064,-3.7078,-3.7033,-3.709,-3.701,-3.7087,-3.7026,-3.7042,-3.7037,-3.7041,-3.7042,-3.6953,-3.7086,-3.7312,-3.7333,-3.7046,-3.7044,-3.7042,0,-3.7002,-3.7055,-3.7126,-3.7133,-3.7123,-3.7158,-3.7155,-3.7154,-3.7172,-3.719,-3.7201,-3.7226,-3.7239,-3.7259,-3.7222,-3.7168,-3.7304,-3.7221,-3.7292,-3.7293,-3.7323,-3.7321,-3.7553,-3.7337,-3.7337,-3.7336,-3.7336,0,-3.7179,-3.7247,-3.7196,-3.724,-3.7314,-3.7267,-3.7342,-3.7332,-3.7331,-3.7371,-3.7312,-3.7351,-3.7301,-3.7335,-3.7307,-3.7374,-3.7381,-3.737,-3.7361,-3.7374,-3.7375,-3.7383,-3.7371,-3.7342,-3.7341,-3.734,-3.7339,0,-3.7367,-3.7336,-3.7408,-3.7394,-3.7391,-3.7447,-3.7433,-3.7473,-3.7453,-3.7504,-3.7513,-3.7482,-3.7519,-3.7485,-3.752,-3.7501,-3.759,-3.7568,-3.7589,-3.7582,-3.7655,-3.7648,-3.7898,-3.7927,-3.7695,-3.7697,-3.7699,0,-3.7481,-3.7532,-3.7522,-3.7545,-3.7546,-3.7583,-3.7601,-3.7557,-3.7578,-3.7585,-3.7624,-3.7656,-3.7678,-3.774,-3.772,-3.7747,-3.7724,-3.781,-3.7727,-3.7738,-3.7723,-3.7719,-3.7723,-3.7826,-3.7828,-3.7831,-3.7833,0,-3.7686,-3.7668,-3.7696,-3.772,-3.7743,-3.7759,-3.777,-3.7792,-3.7746,-3.7773,-3.781,-3.7828,-3.7863,-3.7895,-3.7915,-3.7912,-3.7865,-3.7859,-3.7876,-3.7889,-3.7898,-3.7892,-3.7633,-3.7853,-3.7851,-3.7849,-3.7848,-3.7847,-3.7839,-3.788,-3.788,-3.7913,-3.7917,-3.7929,-3.7965,-3.7949,-3.7979,-3.8004,-3.7977,-3.8022,-3.8023,-3.8045,-3.8048,-3.8082,-3.8046,-3.8071,-3.8078,-3.8084,-3.8094,-3.7895,-3.8086,-3.8085,-3.8084,-3.8084,-3.8083,0,-3.8039,-3.8035,-3.8067,-3.8084,-3.811,-3.8064,-3.8074,-3.8099,-3.8139,-3.8144,-3.8168,-3.821,-3.824,-3.8223,-3.825,-3.828,-3.8259,-3.8288,-3.8284,-3.8284,-3.8126,-3.8107,-3.8305,-3.8305,-3.8305,-3.8305,-3.8305,-3.8305,-3.8146,-3.8213,-3.8195,-3.8263,-3.8259,-3.8302,-3.8311,-3.8322,-3.8326,-3.8375,-3.84,-3.8389,-3.8385,-3.8411,-3.8437,-3.8431,-3.8442,-3.8479,-3.8466,-3.8317,-3.8296,-3.8275,-3.8257,-3.8483,-3.8483,-3.8621,-3.8622,-3.8623]},{"header":{"parameterUnit":"m.s-1","parameterCategory":1,"la1":30.2991,"la2":30.254,"lo1":-89.0895,"lo2":-89.0444,"dy":0.0017,"dx":0.0017,"nx":28,"ny":28,"refTime":"2024-12-08T03:00:00:Z","depth":0,"parameterNumber":3,"parameterNumberName":"V-component_of_WINDS"},"data":[0,0,0,0,0,0,0,0,0,0,0,0,0,0,0,0,0,0,0,0,0,0,0,0,0,0,0,0,0,0,0,0,0,0,0,0,0,0,0,0,0,0,0,0,0,0,0,0,0,0,0,0,0,0,0,0,0,0,0.9407,0.9406,0,0.9317,0.9316,0.9315,0.9224,0.9223,0.9222,0.9221,0.9123,0.9121,0.912,0,0,0,0,0,0,0,0,0,0,0,0,0,0.9499,0.9497,0.9407,0.9406,0.9405,0.9317,0.9316,0.9314,0.9224,0.9223,0.9221,0.922,0.9123,0.9122,0.912,0,0,0,0,0,0,0,0,0,0,0,0,0,0.9439,0.9497,0.9408,0.935,0.9344,0.9317,0.9315,0.9314,0.9225,0.9223,0.9221,0.9219,0.9124,0.9122,0.912,0.9141,0,0,0.9113,0.9112,0,0,0,0,0,0,0,0,0.9442,0.9435,0.9359,0.9354,0.9347,0.928,0.9312,0.9256,0.9225,0.927,0.9221,0.9218,0.9176,0.917,0.9156,0.9137,0.9133,0.9113,0.9111,0.911,0.911,0,0,0,0,0,0,0,0.9446,0.9439,0.9371,0.9358,0.9351,0.9327,0.9316,0.9301,0.9234,0.9266,0.9259,0.925,0.9172,0.9159,0.9153,0.9131,0.9113,0.9111,0.9109,0.9108,0.9124,0.9126,0,0,0,0,0,0,0.946,0.9443,0.9374,0.9369,0.9391,0.9327,0.9315,0.9303,0.9234,0.9222,0.9251,0.9246,0.9163,0.9156,0.915,0.917,0.911,0.9108,0.9107,0.9123,0.9125,0.9127,0,0,0,0,0,0,0.9462,0.9455,0.9378,0.9404,0.9392,0.9327,0.9314,0.9302,0.9288,0.9223,0.921,0.925,0.9162,0.9153,0.9144,0.9166,0.9107,0.9105,0.9121,0.9123,0.9126,0.9213,0,0,0,0,0,0,0.9465,0.9456,0.9465,0.9405,0.9391,0.9376,0.9316,0.9302,0.9285,0.9277,0.9218,0.9207,0.916,0.9148,0.9142,0.9162,0.9103,0.9118,0.9122,0.9125,0.9208,0.9218,0.9227,0,0,0,0,0,0.9469,0.9492,0.9466,0.9458,0.9401,0.9377,0.9369,0.9316,0.9288,0.9295,0.9253,0.9209,0.9165,0.9148,0.914,0.916,0.9117,0.9121,0.9125,0.9204,0.9216,0.9227,0,0,0,0,0,0,0.9554,0.9483,0.9453,0.9458,0.9425,0.9362,0.937,0.9331,0.9304,0.9298,0.9231,0.9218,0.9218,0.9187,0.917,0.9177,0.9134,0.9137,0.9197,0.9208,0.9218,0.9225,0.9101,0,0,0,0,0,0.9574,0.9562,0.95,0.951,0.9495,0.9436,0.9423,0.9385,0.9347,0.9333,0.929,0.9254,0.9231,0.9218,0.9194,0.9203,0.9188,0.9212,0.9222,0.923,0.9233,0.9236,0.9246,0.914,0.914,0.914,0,0,0.9614,0.9573,0.957,0.9526,0.9496,0.9484,0.9424,0.9414,0.9404,0.933,0.932,0.9288,0.9243,0.9244,0.9241,0.9218,0.9259,0.9235,0.9243,0.9241,0.9241,0.9251,0.926,0.9143,0.9142,0.9142,0,0,0.9681,0.9649,0.9654,0.9626,0.9581,0.9542,0.9543,0.9487,0.9463,0.9452,0.9397,0.9383,0.9347,0.9317,0.9297,0.9354,0.9312,0.9347,0.9398,0.9401,0.9409,0.9416,0.9436,0.9444,0.9351,0.9351,0.9351,0,0.9736,0.9717,0.9661,0.9655,0.9637,0.9572,0.9576,0.955,0.9499,0.9488,0.9463,0.9416,0.9381,0.9374,0.9388,0.9374,0.9373,0.9354,0.9413,0.9419,0.9425,0.9443,0.9451,0.9356,0.9355,0.9355,0.9354,0,0.9787,0.9775,0.9784,0.9739,0.9722,0.9721,0.9664,0.9653,0.9616,0.9579,0.9569,0.9525,0.9491,0.9486,0.945,0.9474,0.9461,0.9426,0.9381,0.9441,0.9457,0.9464,0.9362,0.9361,0.9359,0.9358,0,0,0.9905,0.983,0.9834,0.9813,0.9759,0.9748,0.9743,0.9712,0.9704,0.9671,0.9665,0.9636,0.9604,0.9581,0.9541,0.9543,0.9591,0.9507,0.9505,0.9524,0.9615,0.9642,0.9651,0.9563,0.9564,0.9565,0.9618,0,0.9962,0.9952,0.9902,0.9906,0.9894,0.9832,0.9827,0.9794,0.9759,0.9742,0.9702,0.9683,0.9641,0.9628,0.9628,0.9586,0.9608,0.9581,0.9556,0.9555,0.9569,0.9659,0.9688,0.9741,0.9624,0.9625,0.9626,0,1.0028,1.0002,1.0006,0.9953,0.9946,0.9943,0.991,0.9896,0.9856,0.983,0.9806,0.9761,0.9751,0.971,0.9696,0.9678,0.9665,0.9643,0.9643,0.9639,0.9595,0.9657,0.9756,0.9764,0.9635,0.9635,0.9634,0,1.0115,1.0079,1.0077,1.0061,0.9999,0.9999,0.9973,0.9931,0.9915,0.9886,0.9875,0.9845,0.9828,0.9805,0.9753,0.9728,0.9744,0.9698,0.9721,0.9723,0.9728,0.9728,0.9826,0.9719,0.9719,0.9719,0.9719,0,1.0184,1.0189,1.0115,1.0114,1.0117,1.0058,1.0063,1.003,0.9994,0.9984,0.9927,0.9919,0.985,0.9834,0.9792,0.9787,0.9779,0.9758,0.9747,0.9763,0.9766,0.9753,0.9748,0.9721,0.972,0.972,0.972,0,1.0281,1.0232,1.0225,1.0168,1.0153,1.0158,1.0108,1.0104,1.0066,1.0054,1.0048,0.9988,0.9965,0.9911,0.9874,0.9846,0.9851,0.9831,0.9865,0.9858,0.9885,0.9883,0.9978,0.9987,0.9875,0.9876,0.9877,0,1.0329,1.0331,1.0275,1.0265,1.0242,1.0227,1.0211,1.0153,1.0139,1.0094,1.0095,1.0068,1.0044,1.0011,0.9963,0.9934,0.9913,0.9948,0.9908,0.9925,0.9913,0.9914,0.9914,0.9957,0.9959,0.996,0.9961,0,1.042,1.0395,1.0376,1.0348,1.0331,1.0306,1.0277,1.0272,1.0207,1.0194,1.0172,1.0153,1.0116,1.009,1.0054,1.0025,0.9982,0.9974,0.9978,0.9994,1.0015,1.0004,0.989,0.9972,0.9971,0.997,0.9969,0.9969,1.0493,1.0492,1.0453,1.0433,1.0406,1.0381,1.0374,1.0336,1.0317,1.0283,1.025,1.0231,1.019,1.0137,1.0112,1.0095,1.0073,1.0078,1.008,1.0082,1.0089,1.0018,1.0088,1.0088,1.0087,1.0087,1.0087,0,1.0581,1.0552,1.0535,1.0498,1.0482,1.0445,1.0411,1.04,1.0385,1.0351,1.0329,1.0303,1.0278,1.0228,1.0198,1.0194,1.0174,1.0188,1.0188,1.0182,1.0111,1.0111,1.0206,1.0206,1.0206,1.0206,1.0206,1.0206,1.0625,1.0622,1.0593,1.0576,1.0546,1.0529,1.0513,1.0489,1.0462,1.0437,1.0416,1.0385,1.0344,1.0311,1.0286,1.0272,1.0263,1.0285,1.0264,1.0198,1.0187,1.0176,1.0176,1.0283,1.0283,1.0337,1.0337,1.0338]}]]